This is the latest recevied weather packets stored in our database for station/object DL3GCR-10. If no packets are shown the sender has not sent any weather packets the latest 10 day(s).
| Time | Temp. | Humidity | Pressure | Rain* | Wind** | Luminosity | Snow |
|---|---|---|---|---|---|---|---|
| 1777314120 | 18.33° C | 30% | 1019.1 hPa | - | - | - | - |
| 1777313220 | 18.89° C | 31% | 1019 hPa | - | - | - | - |
| 1777312320 | 18.89° C | 30% | 1018.9 hPa | - | - | - | - |
| 1777311419 | 19.44° C | 29% | 1018.9 hPa | - | - | - | - |
| 1777310518 | 20° C | 28% | 1018.8 hPa | - | - | - | - |
| 1777309618 | 20° C | 28% | 1018.8 hPa | - | - | - | - |
| 1777308718 | 20.56° C | 26% | 1019.1 hPa | - | - | - | - |
| 1777307818 | 21.11° C | 27% | 1019.1 hPa | - | - | - | - |
| 1777306922 | 21.67° C | 25% | 1019.2 hPa | - | - | - | - |
| 1777306021 | 22.78° C | 25% | 1019.3 hPa | - | - | - | - |
| 1777305121 | 22.78° C | 25% | 1019.5 hPa | - | - | - | - |
| 1777304220 | 22.78° C | 25% | 1019.8 hPa | - | - | - | - |
| 1777303320 | 23.89° C | 25% | 1019.8 hPa | - | - | - | - |
| 1777302420 | 23.89° C | 25% | 1019.9 hPa | - | - | - | - |
| 1777301520 | 23.89° C | 24% | 1020 hPa | - | - | - | - |
| 1777300620 | 23.89° C | 25% | 1020.2 hPa | - | - | - | - |
| 1777299719 | 23.89° C | 25% | 1020.2 hPa | - | - | - | - |
| 1777298819 | 23.89° C | 25% | 1020.5 hPa | - | - | - | - |
| 1777297919 | 23.89° C | 27% | 1020.6 hPa | - | - | - | - |
| 1777297018 | 23.89° C | 27% | 1020.8 hPa | - | - | - | - |
| 1777296118 | 25° C | 26% | 1021.1 hPa | - | - | - | - |
| 1777295217 | 24.44° C | 26% | 1021.2 hPa | - | - | - | - |
| 1777294316 | 24.44° C | 27% | 1021.4 hPa | - | - | - | - |
| 1777293416 | 23.89° C | 27% | 1021.6 hPa | - | - | - | - |
| 1777292516 | 25° C | 28% | 1021.6 hPa | - | - | - | - |
* Rain since midnight (hover to see other rain measurements)
** Current wind speed in m/s (hover to see current wind gust speed)